WC0AA-WX Weather Reports


time (UTC)temp
C
wind
direction
speed
KPH
gust
KPH
rain 1hr
cm
rain 24hr
cm
rain mn
cm
humidity
%
barometer
mb
20260906134345 27 190 0.0 6.4 0.00 0.00 0.00 84 1015.8
20260906115344 21 82 0.0 0.0 0.00 0.00 0.00 96 1014.7
20260906114344 21 259 0.0 0.0 0.00 0.00 0.00 96 1014.6
20260906112343 21 202 0.0 0.0 0.00 0.00 0.00 96 1014.6
20260906111343 22 225 0.0 0.0 0.00 0.00 0.00 95 1014.6
20260906105313 22 222 0.0 0.0 0.00 0.00 0.00 96 1014.6
20260906103313 21 57 0.0 0.0 0.00 0.00 0.00 96 1014.5
20260906102313 21 225 0.0 0.0 0.00 0.00 0.00 96 1014.5
20260906101313 21 225 0.0 0.0 0.00 0.00 0.00 96 1014.5
20260906100315 21 208 0.0 0.0 0.00 0.00 0.00 96 1014.4
20260906095243 22 202 0.0 0.0 0.00 0.00 0.00 95 1014.4
20260906094243 22 112 0.0 0.0 0.00 0.00 0.00 95 1014.5
20260906083459 22 225 0.0 0.0 0.00 0.00 0.00 92 1014.2
20260906083213 22 225 0.0 0.0 0.00 0.00 0.00 92 1014.2
20260906082213 22 225 0.0 0.0 0.00 0.00 0.00 92 1014.1
20260906081212 23 225 0.0 0.0 0.00 0.00 0.00 91 1014.1
20260906080213 23 202 0.0 0.0 0.00 0.00 0.00 90 1014.1
20260906075212 23 270 0.0 0.0 0.00 0.00 0.00 90 1014.1
20260906073212 23 210 0.0 0.0 0.00 0.00 0.00 91 1014.1
20260906072212 23 211 0.0 0.0 0.00 0.00 0.00 91 1014.1
20260906071212 23 241 0.0 0.0 0.00 0.00 0.00 91 1014.2
20260906055210 24 225 0.0 0.0 0.00 0.00 0.00 86 1014.4
20260906054210 24 207 0.0 0.0 0.00 0.00 0.00 88 1014.3
20260906053139 24 206 0.0 0.0 0.00 0.00 0.00 87 1014.3
20260906031226 26 261 0.0 17.7 0.00 0.00 0.00 82 1013.7
20260906030226 26 254 0.0 17.7 0.00 0.00 0.00 82 1013.4
20260906025226 26 193 0.0 17.7 0.00 0.00 0.00 80 1013.5
20260906023227 27 183 0.0 17.7 0.00 0.00 0.00 78 1013.0
20260906021225 27 180 0.0 17.7 0.00 0.00 0.00 75 1012.9